Ofira, Egypt

6:07 PM EET on August 23, 2017 (GMT +0200)
Sharm El Sheikh | | Change Station

Elev 151 ft 27.97 °N, 34.38 °E | Updated 1 hour ago

Clear
Clear
99 °F
Feels Like 97 °F
N
17
Wind Variable Wind from North

Today
High -- | Low -- °F
--% Chance of Precip.
Yesterday
High -- | Low -- °F
Precip. -- in
Pressure 29.62 in
Visibility -9999.0 miles
Clouds
Heat Index 97 °F
Dew Point 55 °F
Humidity 24%
Rainfall 0.00 in
Snow Depth Not available.
5:17 AM 6:13 PM
Waxing Crescent, 5% visible
METAR HESH 231500Z 35015KT CAVOK 37/13 Q1003 NOSIG
Pressure 29.62 in
Visibility -9999.0 miles
Clouds
Heat Index 97 °F
Dew Point 55 °F
Humidity 24%
Rainfall 0.00 in
Snow Depth Not available.
5:17 AM 6:13 PM
Waxing Crescent, 5% visible
METAR HESH 231500Z 35015KT CAVOK 37/13 Q1003 NOSIG

Get Severe Weather Alerts

Thanks for signing up!

Be on the lookout for a verification email in your inbox.

You'll start receiving the daily forecast at 6 AM.

×

10-Day Weather Forecast

No radar image for this location.
×

Almanac

Astronomy

Aug. 23, 2017 Rise Set
Actual Time
Civil Twilight
Nautical Twilight
Astronomical Twilight
Moon
Length of Visible Light
Length of Day
Tomorrow will be .
, % of the Moon is Illuminated

Today's Extremes

Country Highs Country Lows

Community

WunderPhotos

Category 6

Welcome to Category 6. This is the collective home for Weather Underground's featured writeups by Dr. Jeff Masters (right), Bob Henson (left), Chris Burt, and other regular contributors.

Nearby

Air Quality

  Air Quality AQ Index Pollutant
Not available.

Snow Depth

Station Depth Elevation

Earthquake Activity

City Distance Mag. Time & Date
Minimum magnitude displayed is 2.5.

Coastal Water Temperatures

Place Temperature

Stations

Nearby Weather Stations

Station Location Temp. Windchill Dew Point Humidity Wind Precip. Elev Updated Type